Showing default

TRANSIT 4B, 202

Orbit data source: Space-Track

TRANSIT 4B, 202 is a payload satellite owned by USN BuWeps (US) in LEO that was launched on Wed, 15 Nov 1961 UTC via a THOR ABLESTAR launch vehicle from the Air Force Eastern Test Range (AFETR). Payload-class satellites include a variety of spacecraft equipped with specific instruments for various scientific and technological missions. These include communications satellites like Starlink; space stations such as the ISS; scientific satellites like the Hubble; Earth observation satellites from companies like Planet Labs, Umbra, and HawkEye 360; GPS; miniature CubeSats for education and research; and military/defense satellites.

Loading next visibility...
Identifier
202, 1961-031A
Orbit
LEO
Country
Flag of USUS
Related business
Manufacturer
APL
Mission
Spacecraft
Bus & Motor
TRANSIT 4, Unknown motor
Mass
89 kg wet, 89 kg dry
Launch date (UTC)
1961-11-15 (65 years ago)
Launch vehicle
THOR ABLESTAR
Launch site
Air Force Eastern Test Range (AFETR)
Object type
Payload
Rocket body
Debris
Shape & HBR
CYL, 0.6 m
Radar Cross Section
Large (>1 m²)

Expand to show TLE details & history
Last TLE update: 12 hours ago

TLE from 12 hours ago
0 TRANSIT 4B
1 00202U 61031A   26208.58648356  .00000030  00000-0  88013-5 0  9996
2 00202  32.4360 159.9393 0101074 161.8560 198.5704 13.63795751226510
Epoch: 2026-07-27T14:04Z
TLE epoch observation values (Epoch: 2026-07-27T14:04:32.179Z)
Latitude
-0.00003°
Longitude
3.53725°
Altitude
1,091.63 km
Speed
7.273 km/s
True Right ascension
10h 39m 45s
True Declination
0° 00' 00"
Sunlit
Object was in daylight at epoch
Visualization orbit readout
Latitude
Unknown
Longitude
Unknown
Altitude
Unknown
Speed
Unknown
Apparent Right ascension
Unknown
Apparent Declination
Unknown
Sunlit
N/A
Visualization observer readout
Local Sidereal Time
15:25:43
Azimuth
Unknown
Elevation
Unknown
Doppler factor
Unknown
Orbital elements
Apogee altitude
1,100.149 km
Perigee altitude
950.489 km
Semi-major axis
7,403.456 km
Eccentricity
0.01011
Inclination
32.436°
RAAN
159.9393°
Arg. of periapsis
161.856°
True anomaly
198.20591°
Mean anomaly
198.5704°
Eccentric anomaly
198.38772°
Mean motion
3.40715 °/min
Orbital period
105.66 mins
BSTAR
0.0000088013
Loading maneuver chart data...
Computing Atmospheric mass density...
Loading historical data...
Loading historical data...
Loading historical data...
Loading historical data...
Loading historical data...
Loading historical data...
Loading historical data...
Other satellites on launch #31 in the year 1961 (1961-11-15 UTC)

Documentation

Showing up to 5 results
|